Retour au catalogue

STARLINK-36308

ActifCommunicationsVLEO
NORAD 68543·PAYLOAD·🇺🇸 United States

Lancé Apr 2, 2026 depuis Cape Canaveral Space Force Station

Loading…

Prochains Passages (prochaines 24 heures)

TLE

FraisSource: CelesTrak SupGP

Époque: Sep 14, 2026, 21:13 UTC

1 68543C 26070B   26257.88451389  .00018592  00000+0  54905-3 0  2576
2 68543  53.1590 200.2322 0001332  89.1703 197.0250 15.34396053    13

Suivez STARLINK-36308 en temps réel avec AllMySat

Download on the App Store